owner,sensor,date,latitude,longitude,vertical_datum,wind_speed,wind_to_direction,wind_speed_of_gust,qcFlag 
TABS,ioos:station:wmo:42043:1,2006-08-01T00:00:00Z,28.9818,-94.9186,4.0,6.121707278,165.6234988,7.46,'11111222,11111222,11111222' 
TABS,ioos:station:wmo:42043:1,2006-08-01T00:30:00Z,28.9818,-94.9186,4.0,6.252175621,160.9567244,7.98,'11111222,11111222,11111222' 
TABS,ioos:station:wmo:42043:1,2006-08-01T01:00:00Z,28.9818,-94.9186,4.0,6.353872835,162.5063631,7.94,'11111222,11111222,11111222' 
TABS,ioos:station:wmo:42043:1,2006-08-01T01:30:00Z,28.9818,-94.9186,4.0,6.830519746,161.5653047,8.45,'11111222,11111222,11111222' 
TABS,ioos:station:wmo:42043:1,2006-08-01T02:00:00Z,28.9818,-94.9186,4.0,6.739473273,158.9566449,8.89,'11111222,11111222,11111222' 
TABS,ioos:station:wmo:42043:1,2006-08-01T02:30:00Z,28.9818,-94.9186,4.0,7.242237223,160.8147497,9.05,'11111222,11111222,11111222' 
TABS,ioos:station:wmo:42043:1,2006-08-01T03:00:00Z,28.9818,-94.9186,4.0,6.779749258,158.0890001,9.3,'11111222,11111222,11111222' 
TABS,ioos:station:wmo:42043:1,2006-08-01T03:30:00Z,28.9818,-94.9186,4.0,6.714759862,164.8049975,8.61,'11111222,11111222,11111222' 
TABS,ioos:station:wmo:42043:1,2006-08-01T04:00:00Z,28.9818,-94.9186,4.0,7.129263637,154.2259517,9.33,'11111222,11111222,11111222' 
TABS,ioos:station:wmo:42043:1,2006-08-01T04:30:00Z,28.9818,-94.9186,4.0,7.241802262,154.5675389,9.08,'11111222,11111222,11111222' 
TABS,ioos:station:wmo:42043:1,2006-08-01T05:00:00Z,28.9818,-94.9186,4.0,7.969868255,165.6152783,9.98,'11111222,11111222,11111222' 
TABS,ioos:station:wmo:42043:1,2006-08-01T05:30:00Z,28.9818,-94.9186,4.0,7.595320928,158.77319,9.21,'11111222,11111222,11111222' 
TABS,ioos:station:wmo:42043:1,2006-08-01T06:00:00Z,28.9818,-94.9186,4.0,7.370061058,168.8122748,9.21,'11111222,11111222,11111222' 
TABS,ioos:station:wmo:42043:1,2006-08-01T06:30:00Z,28.9818,-94.9186,4.0,8.014112552,169.5035507,10.35,'11111222,11111222,11111222' 
TABS,ioos:station:wmo:42043:1,2006-08-01T07:00:00Z,28.9818,-94.9186,4.0,7.820613787,171.7665185,9.91,'11111222,11111222,11111222' 
TABS,ioos:station:wmo:42043:1,2006-08-01T07:30:00Z,28.9818,-94.9186,4.0,7.59592654,182.2636822,9.45,'11111222,11111222,11111222' 
TABS,ioos:station:wmo:42043:1,2006-08-01T08:00:00Z,28.9818,-94.9186,4.0,7.490667527,180.7651269,9.46,'11111222,11111222,11111222' 
TABS,ioos:station:wmo:42043:1,2006-08-01T08:30:00Z,28.9818,-94.9186,4.0,7.347006193,172.2561362,9.46,'11111222,11111222,11111222' 
TABS,ioos:station:wmo:42043:1,2006-08-01T09:00:00Z,28.9818,-94.9186,4.0,7.641472371,178.8754405,9.62,'11111222,11111222,11111222' 
TABS,ioos:station:wmo:42043:1,2006-08-01T09:30:00Z,28.9818,-94.9186,4.0,6.860881868,180.9188666,8.49,'11111222,11111222,11111222' 
TABS,ioos:station:wmo:42043:1,2006-08-01T10:00:00Z,28.9818,-94.9186,4.0,6.480933575,180.9727283,7.93,'11111222,11111222,11111222' 
TABS,ioos:station:wmo:42043:1,2006-08-01T10:30:00Z,28.9818,-94.9186,4.0,6.652773858,184.7423846,8.77,'11111222,11111222,11111222' 
TABS,ioos:station:wmo:42043:1,2006-08-01T11:00:00Z,28.9818,-94.9186,4.0,6.516456092,182.5508647,8.54,'11111222,11111222,11111222' 
TABS,ioos:station:wmo:42043:1,2006-08-01T11:30:00Z,28.9818,-94.9186,4.0,5.901220213,178.8350359,7.98,'11111222,11111222,11111222' 
TABS,ioos:station:wmo:42043:1,2006-08-01T12:00:00Z,28.9818,-94.9186,4.0,5.368388958,176.796707,6.94,'11111222,11111222,11111222' 
TABS,ioos:station:wmo:42043:1,2006-08-01T12:30:00Z,28.9818,-94.9186,4.0,5.788488576,170.5541829,8.11,'11111222,11111222,11111222' 
TABS,ioos:station:wmo:42043:1,2006-08-01T13:00:00Z,28.9818,-94.9186,4.0,4.590642657,188.5186132,6.02,'11111222,11111222,11111222' 
TABS,ioos:station:wmo:42043:1,2006-08-01T13:30:00Z,28.9818,-94.9186,4.0,6.431057456,169.3367969,8.3,'11111222,11111222,11111222' 
TABS,ioos:station:wmo:42043:1,2006-08-01T14:00:00Z,28.9818,-94.9186,4.0,6.066011869,168.3013002,7.72,'11111222,11111222,11111222' 
TABS,ioos:station:wmo:42043:1,2006-08-01T14:30:00Z,28.9818,-94.9186,4.0,6.702313034,166.9799942,8.3,'11111222,11111222,11111222' 
TABS,ioos:station:wmo:42043:1,2006-08-01T15:00:00Z,28.9818,-94.9186,4.0,6.170032415,160.8898876,7.95,'11111222,11111222,11111222' 
TABS,ioos:station:wmo:42043:1,2006-08-01T15:30:00Z,28.9818,-94.9186,4.0,6.04028145,160.9653723,7.24,'11111222,11111222,11111222' 
TABS,ioos:station:wmo:42043:1,2006-08-01T16:00:00Z,28.9818,-94.9186,4.0,6.096433384,164.6874279,7.37,'11111222,11111222,11111222' 
TABS,ioos:station:wmo:42043:1,2006-08-01T16:30:00Z,28.9818,-94.9186,4.0,5.81372514,166.3703451,7.88,'11111222,11111222,11111222' 
TABS,ioos:station:wmo:42043:1,2006-08-01T17:00:00Z,28.9818,-94.9186,4.0,6.389405293,164.9417486,8.15,'11111222,11111222,11111222' 
TABS,ioos:station:wmo:42043:1,2006-08-01T17:30:00Z,28.9818,-94.9186,4.0,6.40794819,156.3555286,8.08,'11111222,11111222,11111222' 
TABS,ioos:station:wmo:42043:1,2006-08-01T18:00:00Z,28.9818,-94.9186,4.0,5.60204427,160.1744359,7.44,'11111222,11111222,11111222' 
TABS,ioos:station:wmo:42043:1,2006-08-01T18:30:00Z,28.9818,-94.9186,4.0,6.061724177,159.0238241,7.83,'11111222,11111222,11111222' 
TABS,ioos:station:wmo:42043:1,2006-08-01T19:00:00Z,28.9818,-94.9186,4.0,6.307836396,164.5539302,8.04,'11111222,11111222,11111222' 
TABS,ioos:station:wmo:42043:1,2006-08-01T19:30:00Z,28.9818,-94.9186,4.0,5.920354719,166.2221923,7.53,'11111222,11111222,11111222' 
TABS,ioos:station:wmo:42043:1,2006-08-01T20:00:00Z,28.9818,-94.9186,4.0,5.764833042,161.5967341,7.27,'11111222,11111222,11111222' 
TABS,ioos:station:wmo:42043:1,2006-08-01T20:30:00Z,28.9818,-94.9186,4.0,5.386742986,166.1445798,6.64,'11111222,11111222,11111222' 
TABS,ioos:station:wmo:42043:1,2006-08-01T21:00:00Z,28.9818,-94.9186,4.0,5.80982788,162.4697335,7.51,'11111222,11111222,11111222' 
TABS,ioos:station:wmo:42043:1,2006-08-01T21:30:00Z,28.9818,-94.9186,4.0,5.602945654,164.1531772,7.36,'11111222,11111222,11111222' 
TABS,ioos:station:wmo:42043:1,2006-08-01T22:00:00Z,28.9818,-94.9186,4.0,6.248487817,155.8143312,8.1,'11111222,11111222,11111222' 
TABS,ioos:station:wmo:42043:1,2006-08-01T22:30:00Z,28.9818,-94.9186,4.0,6.044319647,149.9144272,7.48,'11111222,11111222,11111222' 
TABS,ioos:station:wmo:42043:1,2006-08-01T23:00:00Z,28.9818,-94.9186,4.0,6.269266305,144.2820071,7.59,'11111222,11111222,11111222' 
TABS,ioos:station:wmo:42043:1,2006-08-01T23:30:00Z,28.9818,-94.9186,4.0,6.39413794,145.1917937,8.37,'11111222,11111222,11111222' 
TABS,ioos:station:wmo:42043:1,2006-08-02T00:00:00Z,28.9818,-94.9186,4.0,6.228322407,140.9956885,7.82,'11111222,11111222,11111222' 
TABS,ioos:station:wmo:42043:1,2006-08-02T00:30:00Z,28.9818,-94.9186,4.0,5.996065377,149.7576005,7.54,'11111222,11111222,11111222' 
TABS,ioos:station:wmo:42043:1,2006-08-02T01:00:00Z,28.9818,-94.9186,4.0,5.852760033,145.4413496,7.5,'11111222,11111222,11111222' 
TABS,ioos:station:wmo:42043:1,2006-08-02T01:30:00Z,28.9818,-94.9186,4.0,5.605898679,151.7895103,8.19,'11111222,11111222,11111222' 
TABS,ioos:station:wmo:42043:1,2006-08-02T02:00:00Z,28.9818,-94.9186,4.0,6.418138359,152.6367275,8.07,'11111222,11111222,11111222' 
TABS,ioos:station:wmo:42043:1,2006-08-02T02:30:00Z,28.9818,-94.9186,4.0,6.206971887,156.4501716,8.05,'11111222,11111222,11111222' 
TABS,ioos:station:wmo:42043:1,2006-08-02T03:00:00Z,28.9818,-94.9186,4.0,6.170980473,149.7371608,7.94,'11111222,11111222,11111222' 
TABS,ioos:station:wmo:42043:1,2006-08-02T03:30:00Z,28.9818,-94.9186,4.0,6.457561459,148.2300274,8.2,'11111222,11111222,11111222' 
TABS,ioos:station:wmo:42043:1,2006-08-02T04:00:00Z,28.9818,-94.9186,4.0,6.625986719,150.0301643,8.84,'11111222,11111222,11111222' 
TABS,ioos:station:wmo:42043:1,2006-08-02T04:30:00Z,28.9818,-94.9186,4.0,6.936166088,149.8865477,8.73,'11111222,11111222,11111222' 
TABS,ioos:station:wmo:42043:1,2006-08-02T05:00:00Z,28.9818,-94.9186,4.0,7.016466347,155.4076337,9.25,'11111222,11111222,11111222' 
TABS,ioos:station:wmo:42043:1,2006-08-02T05:30:00Z,28.9818,-94.9186,4.0,6.877921198,164.5697779,8.77,'11111222,11111222,11111222' 
TABS,ioos:station:wmo:42043:1,2006-08-02T06:00:00Z,28.9818,-94.9186,4.0,6.382382,160.6000581,8.03,'11111222,11111222,11111222' 
TABS,ioos:station:wmo:42043:1,2006-08-02T06:30:00Z,28.9818,-94.9186,4.0,6.784283308,164.2636627,8.69,'11111222,11111222,11111222' 
TABS,ioos:station:wmo:42043:1,2006-08-02T07:00:00Z,28.9818,-94.9186,4.0,6.548564728,168.1926908,8.34,'11111222,11111222,11111222' 
TABS,ioos:station:wmo:42043:1,2006-08-02T07:30:00Z,28.9818,-94.9186,4.0,6.078239877,164.2490736,7.96,'11111222,11111222,11111222' 
TABS,ioos:station:wmo:42043:1,2006-08-02T08:00:00Z,28.9818,-94.9186,4.0,5.5403249,161.6961165,7.59,'11111222,11111222,11111222' 
TABS,ioos:station:wmo:42043:1,2006-08-02T08:30:00Z,28.9818,-94.9186,4.0,5.827606713,159.8239539,7.66,'11111222,11111222,11111222' 
TABS,ioos:station:wmo:42043:1,2006-08-02T09:00:00Z,28.9818,-94.9186,4.0,6.856544319,168.1330989,8.8,'11111222,11111222,11111222' 
TABS,ioos:station:wmo:42043:1,2006-08-02T09:30:00Z,28.9818,-94.9186,4.0,6.660187685,165.5675687,8.87,'11111222,11111222,11111222' 
TABS,ioos:station:wmo:42043:1,2006-08-02T10:00:00Z,28.9818,-94.9186,4.0,6.234621079,162.9313043,7.92,'11111222,11111222,11111222' 
TABS,ioos:station:wmo:42043:1,2006-08-02T10:30:00Z,28.9818,-94.9186,4.0,5.569093283,166.7125937,7.29,'11111222,11111222,11111222' 
TABS,ioos:station:wmo:42043:1,2006-08-02T11:00:00Z,28.9818,-94.9186,4.0,5.651097239,161.212622,7.38,'11111222,11111222,11111222' 
TABS,ioos:station:wmo:42043:1,2006-08-02T11:30:00Z,28.9818,-94.9186,4.0,5.813441322,159.3519313,7.59,'11111222,11111222,11111222' 
TABS,ioos:station:wmo:42043:1,2006-08-02T12:00:00Z,28.9818,-94.9186,4.0,5.506187429,162.4537932,7.5,'11111222,11111222,11111222' 
TABS,ioos:station:wmo:42043:1,2006-08-02T12:30:00Z,28.9818,-94.9186,4.0,5.802111685,164.0955448,7.29,'11111222,11111222,11111222' 
TABS,ioos:station:wmo:42043:1,2006-08-02T13:00:00Z,28.9818,-94.9186,4.0,6.224026028,163.5743435,7.9,'11111222,11111222,11111222' 
TABS,ioos:station:wmo:42043:1,2006-08-02T13:30:00Z,28.9818,-94.9186,4.0,6.024159692,161.4149228,7.86,'11111222,11111222,11111222' 
TABS,ioos:station:wmo:42043:1,2006-08-02T14:00:00Z,28.9818,-94.9186,4.0,5.787054518,161.2522169,7.62,'11111222,11111222,11111222' 
TABS,ioos:station:wmo:42043:1,2006-08-02T14:30:00Z,28.9818,-94.9186,4.0,5.813028471,156.4781197,7.58,'11111222,11111222,11111222' 
TABS,ioos:station:wmo:42043:1,2006-08-02T15:00:00Z,28.9818,-94.9186,4.0,5.902033548,160.3986736,7.47,'11111222,11111222,11111222' 
TABS,ioos:station:wmo:42043:1,2006-08-02T15:30:00Z,28.9818,-94.9186,4.0,5.674927312,158.4988264,7.17,'11111222,11111222,11111222' 
TABS,ioos:station:wmo:42043:1,2006-08-02T16:00:00Z,28.9818,-94.9186,4.0,4.993085219,155.1289539,6.21,'11111222,11111222,11111222' 
TABS,ioos:station:wmo:42043:1,2006-08-02T16:30:00Z,28.9818,-94.9186,4.0,4.631306511,151.4984255,6.03,'11111222,11111222,11111222' 
TABS,ioos:station:wmo:42043:1,2006-08-02T17:00:00Z,28.9818,-94.9186,4.0,5.02108554,145.1391479,6.1,'11111222,11111222,11111222' 
TABS,ioos:station:wmo:42043:1,2006-08-02T17:30:00Z,28.9818,-94.9186,4.0,5.169951644,145.8798977,6.66,'11111222,11111222,11111222' 
TABS,ioos:station:wmo:42043:1,2006-08-02T18:00:00Z,28.9818,-94.9186,4.0,5.002249494,144.848753,6.43,'11111222,11111222,11111222' 
TABS,ioos:station:wmo:42043:1,2006-08-02T18:30:00Z,28.9818,-94.9186,4.0,5.082538736,143.9646332,6.46,'11111222,11111222,11111222' 
TABS,ioos:station:wmo:42043:1,2006-08-02T19:00:00Z,28.9818,-94.9186,4.0,5.155938324,146.3102217,6.74,'11111222,11111222,11111222' 
TABS,ioos:station:wmo:42043:1,2006-08-02T19:30:00Z,28.9818,-94.9186,4.0,5.446558546,142.3098418,6.75,'11111222,11111222,11111222' 
TABS,ioos:station:wmo:42043:1,2006-08-02T20:00:00Z,28.9818,-94.9186,4.0,5.204786259,134.2218901,6.65,'11111222,11111222,11111222' 
TABS,ioos:station:wmo:42043:1,2006-08-02T20:30:00Z,28.9818,-94.9186,4.0,5.261368643,144.4372973,6.62,'11111222,11111222,11111222' 
TABS,ioos:station:wmo:42043:1,2006-08-02T21:00:00Z,28.9818,-94.9186,4.0,4.910926593,152.6003713,6.16,'11111222,11111222,11111222' 
TABS,ioos:station:wmo:42043:1,2006-08-02T21:30:00Z,28.9818,-94.9186,4.0,4.566399019,144.9877139,5.79,'11111222,11111222,11111222' 
TABS,ioos:station:wmo:42043:1,2006-08-02T22:00:00Z,28.9818,-94.9186,4.0,4.812733111,144.1304708,6.26,'11111222,11111222,11111222' 
TABS,ioos:station:wmo:42043:1,2006-08-02T22:30:00Z,28.9818,-94.9186,4.0,4.806922092,151.1424862,6.01,'11111222,11111222,11111222' 
TABS,ioos:station:wmo:42043:1,2006-08-02T23:00:00Z,28.9818,-94.9186,4.0,5.032891813,139.0285699,6.09,'11111222,11111222,11111222' 
TABS,ioos:station:wmo:42043:1,2006-08-02T23:30:00Z,28.9818,-94.9186,4.0,4.845203814,144.4076296,5.99,'11111222,11111222,11111222' 
TABS,ioos:station:wmo:42043:1,2006-08-03T00:00:00Z,28.9818,-94.9186,4.0,5.056174443,143.6063408,6.5,'11111222,11111222,11111222' 
TABS,ioos:station:wmo:42043:1,2006-08-03T00:30:00Z,28.9818,-94.9186,4.0,5.17568353,141.6689794,6.19,'11111222,11111222,11111222' 
TABS,ioos:station:wmo:42043:1,2006-08-03T01:00:00Z,28.9818,-94.9186,4.0,5.808037534,136.7444675,7.14,'11111222,11111222,11111222' 
TABS,ioos:station:wmo:42043:1,2006-08-03T01:30:00Z,28.9818,-94.9186,4.0,5.248704602,144.0692299,6.76,'11111222,11111222,11111222' 
TABS,ioos:station:wmo:42043:1,2006-08-03T02:00:00Z,28.9818,-94.9186,4.0,5.752721095,140.3605106,7.25,'11111222,11111222,11111222' 
TABS,ioos:station:wmo:42043:1,2006-08-03T02:30:00Z,28.9818,-94.9186,4.0,5.990400654,133.8504984,7.15,'11111222,11111222,11111222' 
TABS,ioos:station:wmo:42043:1,2006-08-03T03:00:00Z,28.9818,-94.9186,4.0,6.328254104,141.0294137,8.24,'11111222,11111222,11111222' 
TABS,ioos:station:wmo:42043:1,2006-08-03T03:30:00Z,28.9818,-94.9186,4.0,6.370007849,143.040453,8.34,'11111222,11111222,11111222' 
TABS,ioos:station:wmo:42043:1,2006-08-03T04:00:00Z,28.9818,-94.9186,4.0,6.011397508,148.3990262,7.48,'11111222,11111222,11111222' 
TABS,ioos:station:wmo:42043:1,2006-08-03T04:30:00Z,28.9818,-94.9186,4.0,6.086682183,153.7720031,7.44,'11111222,11111222,11111222' 
TABS,ioos:station:wmo:42043:1,2006-08-03T05:00:00Z,28.9818,-94.9186,4.0,5.77754273,150.3292016,7.54,'11111222,11111222,11111222' 
TABS,ioos:station:wmo:42043:1,2006-08-03T05:30:00Z,28.9818,-94.9186,4.0,5.868730698,146.2560671,7.5,'11111222,11111222,11111222' 
TABS,ioos:station:wmo:42043:1,2006-08-03T06:00:00Z,28.9818,-94.9186,4.0,6.31845709,151.447714,7.77,'11111222,11111222,11111222' 
TABS,ioos:station:wmo:42043:1,2006-08-03T06:30:00Z,28.9818,-94.9186,4.0,6.230321019,145.2644245,7.73,'11111222,11111222,11111222' 
TABS,ioos:station:wmo:42043:1,2006-08-03T07:00:00Z,28.9818,-94.9186,4.0,5.527938133,148.2366081,6.7,'11111222,11111222,11111222' 
TABS,ioos:station:wmo:42043:1,2006-08-03T07:30:00Z,28.9818,-94.9186,4.0,5.617018782,148.3192748,7.38,'11111222,11111222,11111222' 
TABS,ioos:station:wmo:42043:1,2006-08-03T08:00:00Z,28.9818,-94.9186,4.0,6.037549172,153.010817,7.89,'11111222,11111222,11111222' 
TABS,ioos:station:wmo:42043:1,2006-08-03T08:30:00Z,28.9818,-94.9186,4.0,5.394682567,157.6663432,7.28,'11111222,11111222,11111222' 
TABS,ioos:station:wmo:42043:1,2006-08-03T09:00:00Z,28.9818,-94.9186,4.0,5.084643547,157.5710943,6.64,'11111222,11111222,11111222' 
TABS,ioos:station:wmo:42043:1,2006-08-03T09:30:00Z,28.9818,-94.9186,4.0,4.950252519,156.8016742,6.67,'11111222,11111222,11111222' 
TABS,ioos:station:wmo:42043:1,2006-08-03T10:00:00Z,28.9818,-94.9186,4.0,4.969517079,152.3008024,6.61,'11111222,11111222,11111222' 
TABS,ioos:station:wmo:42043:1,2006-08-03T10:30:00Z,28.9818,-94.9186,4.0,4.795331063,152.1526973,6.41,'11111222,11111222,11111222' 
TABS,ioos:station:wmo:42043:1,2006-08-03T11:00:00Z,28.9818,-94.9186,4.0,4.884362804,146.8633141,6.32,'11111222,11111222,11111222' 
TABS,ioos:station:wmo:42043:1,2006-08-03T11:30:00Z,28.9818,-94.9186,4.0,4.597618949,152.8221591,5.89,'11111222,11111222,11111222' 
TABS,ioos:station:wmo:42043:1,2006-08-03T12:00:00Z,28.9818,-94.9186,4.0,4.550274717,143.7599962,6.18,'11111222,11111222,11111222' 
TABS,ioos:station:wmo:42043:1,2006-08-03T12:30:00Z,28.9818,-94.9186,4.0,4.453818586,138.0035341,5.88,'11111222,11111222,11111222' 
TABS,ioos:station:wmo:42043:1,2006-08-03T13:00:00Z,28.9818,-94.9186,4.0,4.305902925,144.8338567,5.89,'11111222,11111222,11111222' 
TABS,ioos:station:wmo:42043:1,2006-08-03T13:30:00Z,28.9818,-94.9186,4.0,4.695955707,136.0356665,6.18,'11111222,11111222,11111222' 
TABS,ioos:station:wmo:42043:1,2006-08-03T14:00:00Z,28.9818,-94.9186,4.0,4.743216208,130.8112539,5.99,'11111222,11111222,11111222' 
TABS,ioos:station:wmo:42043:1,2006-08-03T14:30:00Z,28.9818,-94.9186,4.0,4.92760591,130.8034094,6.15,'11111222,11111222,11111222' 
TABS,ioos:station:wmo:42043:1,2006-08-03T15:00:00Z,28.9818,-94.9186,4.0,4.224559149,137.2065945,5.61,'11111222,11111222,11111222' 
TABS,ioos:station:wmo:42043:1,2006-08-03T15:30:00Z,28.9818,-94.9186,4.0,3.902665756,139.7811884,5.09,'11111222,11111222,11111222' 
TABS,ioos:station:wmo:42043:1,2006-08-03T16:00:00Z,28.9818,-94.9186,4.0,3.76175491,139.9607148,5.41,'11111222,11111222,11111222' 
TABS,ioos:station:wmo:42043:1,2006-08-03T16:30:00Z,28.9818,-94.9186,4.0,3.804655043,134.1483986,5.05,'11111222,11111222,11111222' 
TABS,ioos:station:wmo:42043:1,2006-08-03T17:00:00Z,28.9818,-94.9186,4.0,3.124739989,144.3773545,4.07,'11111222,11111222,11111222' 
TABS,ioos:station:wmo:42043:1,2006-08-03T17:30:00Z,28.9818,-94.9186,4.0,3.168974598,133.4659778,4.32,'11111222,11111222,11111222' 
TABS,ioos:station:wmo:42043:1,2006-08-03T18:00:00Z,28.9818,-94.9186,4.0,3.698986348,136.205209,4.76,'11111222,11111222,11111222' 
TABS,ioos:station:wmo:42043:1,2006-08-03T18:30:00Z,28.9818,-94.9186,4.0,3.493823121,133.8406432,4.84,'11111222,11111222,11111222' 
TABS,ioos:station:wmo:42043:1,2006-08-03T19:00:00Z,28.9818,-94.9186,4.0,3.766019118,143.3129655,4.88,'11111222,11111222,11111222' 
TABS,ioos:station:wmo:42043:1,2006-08-03T19:30:00Z,28.9818,-94.9186,4.0,3.877524984,137.09047,5.3,'11111222,11111222,11111222' 
TABS,ioos:station:wmo:42043:1,2006-08-03T20:00:00Z,28.9818,-94.9186,4.0,3.507549002,148.1680525,4.51,'11111222,11111222,11111222' 
TABS,ioos:station:wmo:42043:1,2006-08-03T20:30:00Z,28.9818,-94.9186,4.0,3.870206713,133.010956,5.24,'11111222,11111222,11111222' 
TABS,ioos:station:wmo:42043:1,2006-08-03T21:00:00Z,28.9818,-94.9186,4.0,3.413517248,130.1282641,4.61,'11111222,11111222,11111222' 
TABS,ioos:station:wmo:42043:1,2006-08-03T21:30:00Z,28.9818,-94.9186,4.0,4.497654945,125.3158832,5.7,'11111222,11111222,11111222' 
TABS,ioos:station:wmo:42043:1,2006-08-03T22:00:00Z,28.9818,-94.9186,4.0,4.61139892,133.7702301,6.05,'11111222,11111222,11111222' 
TABS,ioos:station:wmo:42043:1,2006-08-03T22:30:00Z,28.9818,-94.9186,4.0,4.61615641,142.6587384,6.19,'11111222,11111222,11111222' 
TABS,ioos:station:wmo:42043:1,2006-08-03T23:00:00Z,28.9818,-94.9186,4.0,4.909297302,145.7923091,6.32,'11111222,11111222,11111222' 
TABS,ioos:station:wmo:42043:1,2006-08-03T23:30:00Z,28.9818,-94.9186,4.0,4.644006891,143.2290994,6.22,'11111222,11111222,11111222' 
TABS,ioos:station:wmo:42043:1,2006-08-04T00:00:00Z,28.9818,-94.9186,4.0,4.992894952,135.9740856,6.17,'11111222,11111222,11111222' 
TABS,ioos:station:wmo:42043:1,2006-08-04T00:30:00Z,28.9818,-94.9186,4.0,5.298386547,127.5623318,6.54,'11111222,11111222,11111222' 
TABS,ioos:station:wmo:42043:1,2006-08-04T01:00:00Z,28.9818,-94.9186,4.0,5.726464878,125.1890818,7.49,'11111222,11111222,11111222' 
TABS,ioos:station:wmo:42043:1,2006-08-04T01:30:00Z,28.9818,-94.9186,4.0,6.225640529,121.4691775,7.71,'11111222,11111222,11111222' 
TABS,ioos:station:wmo:42043:1,2006-08-04T02:00:00Z,28.9818,-94.9186,4.0,6.299436483,118.2333488,7.97,'11111222,11111222,11111222' 
TABS,ioos:station:wmo:42043:1,2006-08-04T02:30:00Z,28.9818,-94.9186,4.0,6.533176869,125.782693,8.11,'11111222,11111222,11111222' 
TABS,ioos:station:wmo:42043:1,2006-08-04T03:00:00Z,28.9818,-94.9186,4.0,6.99706367,125.8711814,8.37,'11111222,11111222,11111222' 
TABS,ioos:station:wmo:42043:1,2006-08-04T03:30:00Z,28.9818,-94.9186,4.0,6.381010892,144.8905767,8.11,'11111222,11111222,11111222' 
TABS,ioos:station:wmo:42043:1,2006-08-04T04:00:00Z,28.9818,-94.9186,4.0,6.71201907,142.9938185,8.38,'11111222,11111222,11111222' 
TABS,ioos:station:wmo:42043:1,2006-08-04T04:30:00Z,28.9818,-94.9186,4.0,6.360283013,152.4682981,8.01,'11111222,11111222,11111222' 
TABS,ioos:station:wmo:42043:1,2006-08-04T05:00:00Z,28.9818,-94.9186,4.0,5.813381116,162.6873828,7.65,'11111222,11111222,11111222' 
TABS,ioos:station:wmo:42043:1,2006-08-04T05:30:00Z,28.9818,-94.9186,4.0,5.934787275,155.7241005,7.53,'11111222,11111222,11111222' 
TABS,ioos:station:wmo:42043:1,2006-08-04T06:00:00Z,28.9818,-94.9186,4.0,5.66887114,164.0270856,7.06,'11111222,11111222,11111222' 
TABS,ioos:station:wmo:42043:1,2006-08-04T06:30:00Z,28.9818,-94.9186,4.0,5.027772867,166.0745557,6.89,'11111222,11111222,11111222' 
TABS,ioos:station:wmo:42043:1,2006-08-04T07:00:00Z,28.9818,-94.9186,4.0,4.598010439,172.6279152,5.71,'11111222,11111222,11111222' 
TABS,ioos:station:wmo:42043:1,2006-08-04T07:30:00Z,28.9818,-94.9186,4.0,4.707632101,166.1115926,6.54,'11111222,11111222,11111222' 
TABS,ioos:station:wmo:42043:1,2006-08-04T08:00:00Z,28.9818,-94.9186,4.0,3.967782756,167.9256526,5.34,'11111222,11111222,11111222' 
TABS,ioos:station:wmo:42043:1,2006-08-04T08:30:00Z,28.9818,-94.9186,4.0,3.511936788,166.1618431,4.95,'11111222,11111222,11111222' 
TABS,ioos:station:wmo:42043:1,2006-08-04T09:00:00Z,28.9818,-94.9186,4.0,3.61365466,171.0853043,4.96,'11111222,11111222,11111222' 
TABS,ioos:station:wmo:42043:1,2006-08-04T09:30:00Z,28.9818,-94.9186,4.0,2.735854528,168.4028018,3.56,'11111222,11111222,11111222' 
TABS,ioos:station:wmo:42043:1,2006-08-04T10:00:00Z,28.9818,-94.9186,4.0,2.862516375,152.5400498,3.99,'11111222,11111222,11111222' 
TABS,ioos:station:wmo:42043:1,2006-08-04T10:30:00Z,28.9818,-94.9186,4.0,2.798731856,141.8200767,3.67,'11111222,11111222,11111222' 
TABS,ioos:station:wmo:42043:1,2006-08-04T11:00:00Z,28.9818,-94.9186,4.0,2.467326488,156.3442945,3.35,'11111222,11111222,11111222' 
TABS,ioos:station:wmo:42043:1,2006-08-04T11:30:00Z,28.9818,-94.9186,4.0,2.016134916,169.1361759,3.04,'11111222,11111222,11111222' 
TABS,ioos:station:wmo:42043:1,2006-08-04T12:00:00Z,28.9818,-94.9186,4.0,0.950841732,182.4112346,1.75,'11111222,11111222,11111222' 
TABS,ioos:station:wmo:42043:1,2006-08-04T12:30:00Z,28.9818,-94.9186,4.0,1.400892573,161.6946401,2.32,'11111222,11111222,11111222' 
TABS,ioos:station:wmo:42043:1,2006-08-04T13:00:00Z,28.9818,-94.9186,4.0,1.482228053,150.4951281,2.17,'11111222,11111222,11111222' 
TABS,ioos:station:wmo:42043:1,2006-08-04T13:30:00Z,28.9818,-94.9186,4.0,1.735108066,141.0826382,2.58,'11111222,11111222,11111222' 
TABS,ioos:station:wmo:42043:1,2006-08-04T14:00:00Z,28.9818,-94.9186,4.0,1.554252232,82.23443122,2.35,'11111222,11111222,11111222' 
TABS,ioos:station:wmo:42043:1,2006-08-04T14:30:00Z,28.9818,-94.9186,4.0,1.288603896,65.22449645,2.03,'11111222,11111222,11111222' 
TABS,ioos:station:wmo:42043:1,2006-08-04T15:00:00Z,28.9818,-94.9186,4.0,1.668322511,62.51302373,2.2,'11111222,11111222,11111222' 
TABS,ioos:station:wmo:42043:1,2006-08-04T15:30:00Z,28.9818,-94.9186,4.0,1.610372628,58.97487725,2.59,'11111222,11111222,11111222' 
TABS,ioos:station:wmo:42043:1,2006-08-04T16:00:00Z,28.9818,-94.9186,4.0,2.330257497,64.31430048,3.19,'11111222,11111222,11111222' 
TABS,ioos:station:wmo:42043:1,2006-08-04T16:30:00Z,28.9818,-94.9186,4.0,2.684790495,71.76713064,3.39,'11111222,11111222,11111222' 
TABS,ioos:station:wmo:42043:1,2006-08-04T17:00:00Z,28.9818,-94.9186,4.0,3.412696881,66.51445675,4.3,'11111222,11111222,11111222' 
TABS,ioos:station:wmo:42043:1,2006-08-04T17:30:00Z,28.9818,-94.9186,4.0,3.479080338,70.52304913,4.44,'11111222,11111222,11111222' 
TABS,ioos:station:wmo:42043:1,2006-08-04T18:00:00Z,28.9818,-94.9186,4.0,3.098596456,82.20944766,4.22,'11111222,11111222,11111222' 
TABS,ioos:station:wmo:42043:1,2006-08-04T18:30:00Z,28.9818,-94.9186,4.0,3.189043744,94.31643834,4.23,'11111222,11111222,11111222' 